Wind_Speed
44 44 46 47 50 51 53 54 56 56 58 60 60 61 62 62 63 63 64 65 66 67 68 69 70 71 71 71 70 69 68 68 68 68 67 66 66 65
46 47 49 51 52 54 55 57 57 58 59 60 60 61 61 62 63 63 64 65 66 66 67 67 68 69 68 67 67 67 67 66 65 65 64 64 63 63
49 51 52 53 54 55 56 56 56 57 57 58 59 59 60 60 60 60 62 63 64 64 64 64 64 64 64 64 63 62 60 60 60 60 61 61 60 60
52 53 54 54 55 55 55 55 55 55 55 55 56 56 56 56 56 56 57 58 57 56 55 55 55 55 55 54 54 54 54 53 52 52 53 53 54 54
52 52 52 52 52 52 52 51 52 52 52 51 51 51 51 51 51 50 49 48 48 48 47 48 47 47 47 47 47 47 47 47 47 46 46 46 47 48
49 49 49 49 49 49 49 48 48 47 46 46 46 46 46 46 44 43 42 42 41 41 40 40 40 40 40 40 41 41 41 41 41 41 41 41 42 42
46 46 45 45 45 44 44 43 42 42 42 41 41 41 39 38 38 37 37 36 36 36 35 35 34 33 33 33 34 34 35 36 36 36 36 37 37 37
41 41 41 40 39 38 37 37 37 36 36 35 35 34 34 34 33 32 31 30 30 31 30 30 29 28 28 29 29 29 30 31 32 32 33 33 34 34
37 37 36 35 34 33 32 31 30 30 30 29 29 29 29 29 27 27 26 26 26 26 25 25 25 25 25 24 24 25 26 27 28 29 30 30 30 31
34 33 32 30 29 28 27 26 26 26 25 25 25 25 24 24 24 24 23 23 23 22 22 22 22 22 22 22 22 22 23 24 25 26 27 27 28 29
29 27 26 25 24 23 22 22 22 21 21 20 20 20 20 20 20 20 20 20 20 20 20 20 20 20 20 20 20 20 21 22 23 23 24 25 26 27
24 23 23 22 21 19 19 19 18 18 18 17 17 17 18 18 17 17 17 18 18 18 18 18 18 18 18 18 19 19 20 20 20 21 21 22 23 25
21 20 19 18 18 17 17 16 16 15 15 15 15 15 15 15 15 15 16 16 16 17 17 17 17 17 17 17 18 18 19 19 18 18 19 20 21 22
18 17 16 15 15 14 14 14 13 13 13 13 14 14 14 14 14 15 15 15 15 15 15 15 15 15 15 16 16 17 17 17 17 17 18 19 19 18
14 13 13 13 13 13 13 12 12 13 13 12 13 13 14 14 14 14 15 15 14 14 14 14 14 14 14 14 15 16 16 16 16 17 17 17 17 16
11 12 12 12 12 12 12 12 12 12 12 13 13 13 14 14 14 14 14 14 14 13 13 14 14 14 14 14 15 15 16 16 16 16 16 16 15 14
10 11 11 11 11 11 11 12 12 12 12 13 13 14 14 14 14 14 13 13 13 13 13 14 14 14 14 15 16 16 16 16 16 16 17 17 16 14
10 11 11 11 11 11 12 12 12 12 13 13 13 14 14 13 13 13 13 13 13 13 14 14 15 15 14 15 16 16 16 16 16 17 18 18 18 16
9 10 10 11 11 12 12 13 13 13 13 13 13 13 13 12 12 12 13 13 13 13 14 14 15 15 15 15 16 16 17 17 17 18 18 19 19 19
9 9 10 11 11 12 12 12 13 13 13 13 13 13 12 12 12 12 12 12 12 13 14 14 14 14 14 15 16 17 18 18 18 18 19 20 20 20
8 9 10 11 11 12 12 12 12 13 13 12 13 13 12 12 12 11 12 12 13 13 13 14 15 15 15 15 16 16 17 18 19 20 21 21 21 21
9 9 10 11 11 12 12 12 12 13 13 13 12 13 12 12 12 12 12 12 12 13 13 14 15 15 16 15 15 16 17 18 19 20 21 21 21 21
9 10 10 11 11 11 12 12 12 13 13 13 13 13 13 12 12 12 12 12 12 13 14 14 15 15 16 16 16 17 17 18 18 19 20 21 21 21
Wind_Direction
284 283 283 282 283 282 281 281 281 280 279 279 279 279 280 279 279 278 277 276 277 276 276 276 276 275 275 275 274 274 274 274 274 273 272 272 271 271
283 283 283 283 283 282 282 283 282 282 281 281 281 281 281 281 280 279 278 278 277 277 277 276 276 275 274 274 274 274 274 274 273 273 273 272 270 269
284 285 284 284 283 283 284 284 284 283 282 282 282 281 281 281 281 281 280 280 279 279 278 277 276 276 275 275 275 274 274 274 274 274 273 272 271 270
286 286 286 286 285 285 285 285 285 285 284 283 283 283 283 283 283 283 283 282 282 281 281 280 279 278 277 275 275 275 275 275 275 275 274 273 271 270
288 288 288 288 288 287 287 287 287 287 286 285 285 285 285 285 285 284 284 283 283 283 282 281 280 280 279 277 276 276 275 275 275 275 274 273 272 271
291 292 291 291 290 289 289 288 288 288 287 287 286 286 286 286 286 286 286 287 286 285 285 284 284 282 280 279 278 278 277 276 275 275 275 274 273 272
295 295 295 294 293 292 291 290 290 289 288 287 287 288 288 289 289 290 290 290 289 288 288 288 287 286 284 281 280 280 279 278 277 276 276 275 275 274
300 300 299 298 297 296 294 293 293 293 292 291 291 291 292 292 292 293 293 293 293 292 291 291 291 289 287 286 285 283 281 280 280 279 279 279 278 276
303 303 303 302 301 299 298 298 297 297 296 296 295 296 296 296 297 298 298 297 297 297 295 294 292 291 290 289 289 288 287 286 285 284 283 282 280 278
306 305 305 305 304 304 303 302 302 302 302 301 300 300 300 301 302 302 303 303 303 303 301 300 298 296 295 295 294 293 293 292 291 290 287 285 283 282
310 310 310 310 311 311 310 310 310 309 308 307 306 307 307 307 307 307 308 308 309 309 308 306 304 303 302 302 301 299 299 299 298 295 292 289 288 286
314 315 315 316 318 319 319 319 318 318 318 318 316 315 315 316 317 318 318 317 317 316 314 313 312 311 311 310 310 310 309 308 306 302 299 297 296 293
319 319 320 322 324 325 326 326 327 329 330 330 330 329 329 329 329 329 328 328 328 327 326 324 322 321 320 320 320 320 319 317 314 311 309 307 305 302
324 326 329 331 334 336 337 339 341 343 343 342 343 344 343 341 340 339 339 338 337 336 337 338 336 334 332 331 331 330 329 328 327 324 323 320 316 312
334 338 341 344 346 347 349 352 355 354 354 354 352 351 349 349 348 349 350 350 349 348 348 350 350 348 346 345 345 344 342 342 341 340 337 335 332 327
348 351 352 352 353 355 359 3 4 2 4 4 1 359 359 359 359 0 2 2 2 0 1 2 1 360 359 359 358 358 357 357 356 356 356 354 351 348
358 360 0 2 7 10 11 9 8 8 9 8 8 8 7 6 7 9 10 9 10 9 9 10 11 11 11 9 8 8 9 11 13 13 12 10 8 5
7 8 9 11 13 14 12 12 13 13 13 14 13 11 10 11 12 13 15 16 17 17 16 15 15 15 15 16 16 18 19 20 21 21 21 21 20 19
13 16 17 15 14 13 14 14 15 15 15 14 12 13 14 16 18 17 18 19 20 20 19 18 19 19 21 24 25 27 27 27 28 28 28 27 27 29
20 19 16 15 13 12 12 13 15 16 15 14 14 16 18 20 20 21 21 23 23 23 23 23 24 26 29 31 32 33 33 34 35 35 34 34 36 37
18 15 14 13 13 13 15 17 18 19 18 18 18 20 22 24 24 24 23 24 26 28 29 29 31 33 37 37 37 37 37 39 40 40 39 39 40 41
16 14 13 13 15 16 18 20 20 21 22 24 25 26 29 30 31 31 31 30 31 33 35 35 36 39 41 42 41 41 40 41 42 42 41 41 42 43
18 16 15 16 18 20 20 21 22 22 24 27 29 32 35 36 36 37 37 38 40 41 41 40 40 42 44 46 46 44 44 43 43 44 43 44 45 46
Height
5771 5768 5765 5762 5758 5754 5750 5746 5743 5738 5734 5729 5726 5722 5718 5714 5710 5707 5702 5699 5695 5691 5688 5685 5683 5680 5678 5675 5673 5672 5670 5668 5666 5665 5664 5663 5663 5662
5758 5755 5751 5747 5743 5739 5735 5730 5726 5721 5716 5711 5708 5704 5700 5695 5691 5688 5684 5680 5676 5673 5669 5666 5663 5660 5658 5655 5653 5652 5650 5648 5647 5646 5645 5644 5643 5643
5745 5741 5736 5732 5727 5723 5718 5713 5708 5704 5700 5695 5691 5686 5683 5678 5674 5669 5665 5662 5658 5655 5651 5647 5644 5641 5639 5636 5635 5633 5631 5630 5628 5627 5626 5625 5624 5625
5730 5725 5721 5716 5711 5706 5701 5696 5692 5687 5683 5679 5674 5670 5666 5662 5658 5653 5649 5645 5640 5636 5633 5630 5627 5623 5621 5619 5617 5616 5614 5613 5611 5610 5609 5608 5608 5606
5715 5710 5705 5700 5695 5690 5685 5681 5676 5672 5668 5664 5659 5655 5651 5647 5643 5638 5634 5630 5625 5621 5619 5615 5612 5609 5606 5604 5603 5601 5600 5599 5598 5596 5595 5594 5592 5592
5700 5695 5690 5685 5680 5676 5671 5667 5662 5658 5654 5650 5646 5641 5637 5633 5629 5625 5621 5617 5613 5609 5606 5603 5601 5597 5595 5593 5591 5590 5588 5587 5585 5584 5583 5581 5580 5579
5687 5682 5676 5671 5666 5662 5658 5653 5649 5645 5641 5637 5633 5629 5626 5622 5618 5614 5611 5607 5603 5600 5596 5593 5590 5588 5585 5583 5581 5579 5578 5576 5575 5573 5571 5570 5568 5567
5675 5669 5664 5659 5655 5650 5646 5642 5638 5634 5630 5626 5623 5619 5616 5612 5609 5605 5601 5598 5595 5592 5588 5585 5582 5579 5577 5575 5573 5571 5569 5567 5565 5563 5561 5560 5558 5556
5665 5659 5654 5649 5645 5641 5636 5632 5629 5625 5621 5618 5615 5611 5608 5604 5601 5597 5594 5591 5588 5584 5581 5578 5575 5572 5570 5568 5565 5563 5561 5559 5557 5554 5552 5550 5548 5546
5656 5650 5645 5641 5636 5632 5628 5625 5621 5618 5614 5611 5608 5605 5602 5598 5595 5592 5588 5585 5582 5579 5576 5573 5570 5567 5564 5562 5559 5557 5554 5552 5549 5546 5544 5541 5539 5537
5648 5643 5639 5635 5630 5626 5623 5619 5615 5612 5609 5606 5603 5600 5596 5593 5590 5587 5583 5580 5577 5574 5571 5568 5565 5562 5559 5556 5554 5551 5548 5545 5542 5539 5536 5534 5531 5528
5643 5638 5634 5630 5626 5622 5618 5615 5611 5608 5605 5602 5599 5596 5592 5589 5586 5583 5580 5577 5574 5571 5567 5564 5561 5558 5555 5552 5549 5546 5543 5540 5536 5533 5530 5527 5524 5520
5638 5634 5630 5626 5622 5619 5615 5612 5609 5605 5602 5600 5597 5593 5590 5587 5584 5581 5578 5574 5571 5568 5564 5561 5558 5555 5552 5549 5546 5542 5539 5535 5531 5528 5525 5521 5517 5514
5634 5630 5627 5623 5620 5617 5613 5610 5607 5604 5601 5599 5596 5592 5589 5586 5583 5580 5576 5573 5569 5566 5562 5559 5556 5553 5550 5546 5543 5539 5536 5532 5528 5524 5520 5516 5513 5509
5632 5629 5625 5622 5619 5616 5613 5610 5607 5604 5601 5598 5595 5592 5589 5586 5582 5579 5575 5572 5569 5565 5562 5558 5555 5552 5549 5545 5542 5538 5534 5530 5526 5521 5517 5513 5509 5505
5631 5628 5625 5622 5619 5616 5613 5610 5607 5604 5601 5598 5595 5592 5589 5586 5582 5579 5576 5572 5569 5566 5562 5559 5555 5552 5548 5545 5541 5537 5533 5529 5525 5520 5516 5511 5507 5503
5631 5628 5625 5622 5619 5616 5614 5611 5608 5605 5602 5599 5596 5593 5589 5586 5583 5579 5576 5573 5570 5567 5563 5560 5556 5553 5549 5546 5542 5538 5533 5529 5525 5520 5516 5512 5507 5503
5631 5628 5625 5623 5620 5617 5614 5611 5608 5605 5602 5599 5596 5593 5590 5587 5584 5581 5577 5574 5571 5568 5564 5561 5558 5554 5551 5547 5543 5539 5535 5531 5526 5522 5518 5513 5509 5505
5631 5629 5626 5623 5621 5618 5615 5612 5609 5606 5603 5600 5597 5594 5591 5588 5585 5582 5579 5576 5572 5569 5566 5563 5559 5556 5553 5549 5545 5541 5537 5533 5529 5525 5520 5516 5512 5507
5632 5629 5627 5624 5621 5619 5616 5613 5610 5607 5604 5601 5598 5595 5591 5589 5586 5583 5580 5577 5574 5571 5568 5564 5561 5558 5555 5552 5548 5544 5540 5536 5532 5528 5524 5519 5515 5511
5633 5630 5628 5625 5622 5619 5616 5613 5610 5607 5604 5601 5599 5596 5593 5590 5587 5584 5582 5579 5576 5573 5570 5567 5563 5560 5557 5554 5551 5547 5543 5539 5536 5532 5527 5523 5520 5516
5633 5631 5628 5625 5623 5620 5617 5614 5611 5608 5605 5602 5600 5597 5594 5591 5588 5586 5583 5581 5578 5575 5572 5569 5566 5563 5560 5557 5554 5550 5547 5544 5540 5536 5532 5529 5525 5521
5634 5632 5629 5626 5623 5621 5618 5615 5612 5609 5606 5603 5601 5598 5595 5593 5590 5587 5585 5582 5580 5577 5574 5572 5569 5566 5563 5560 5557 5554 5551 5548 5544 5541 5538 5534 5530 5527